• In Belarus
  • List of Countries
  • For 7 days
  • Water Temperature
  • Weather Map
  • Weather Widgets
  • user-avatar
    Login

    Hourly Weather Lubango

    Today, 24 February, Monday

    Time Temperature Precipitation Wind Pressure Humidity
    00:00 +16°C° 0 mm 1 mps 608 mmHg 88%
    01:00 +15°C° 0 mm 1 mps 607 mmHg 90%
    02:00 +15°C° 0 mm 1 mps 607 mmHg 91%
    03:00 +15°C° 0 mm 1 mps 607 mmHg 92%
    04:00 +15°C° 0 mm 1 mps 607 mmHg 94%
    05:00 +15°C° 0 mm 1 mps 607 mmHg 92%
    06:00 +16°C° 0 mm 1 mps 608 mmHg 90%
    07:00 +16°C° 0 mm 1 mps 608 mmHg 88%
    08:00 +19°C° 0 mm 1 mps 609 mmHg 79%
    09:00 +21°C° 0 mm 1 mps 610 mmHg 71%
    10:00 +23°C° 0 mm 1 mps 611 mmHg 62%
    11:00 +24°C° 0.3 mm 2 mps 611 mmHg 61%
    12:00 +24°C° 0.3 mm 2 mps 610 mmHg 61%
    13:00 +25°C° 0.3 mm 2 mps 610 mmHg 60%
    14:00 +24°C° 1 mm 3 mps 609 mmHg 63%
    15:00 +24°C° 1 mm 3 mps 609 mmHg 66%
    16:00 +22°C° 1 mm 3 mps 608 mmHg 68%
    17:00 +21°C° 0.3 mm 2 mps 608 mmHg 75%
    18:00 +19°C° 0.3 mm 2 mps 608 mmHg 81%
    19:00 +18°C° 0.3 mm 1 mps 608 mmHg 87%
    20:00 +18°C° 0 mm 1 mps 608 mmHg 88%
    21:00 +18°C° 0 mm 1 mps 608 mmHg 88%
    22:00 +15°C° 0 mm 0 mps 608 mmHg 89%
    23:00 +16°C° 0 mm 1 mps 608 mmHg 89%

    Tomorrow, 25 February, Tuesday

    Time Temperature Precipitation Wind Pressure Humidity
    00:00 +16°C° 0 mm 1 mps 608 mmHg 89%
    01:00 +15°C° 0 mm 1 mps 607 mmHg 90%
    02:00 +15°C° 0 mm 1 mps 607 mmHg 88%
    03:00 +15°C° 0 mm 1 mps 606 mmHg 87%
    04:00 +15°C° 0 mm 1 mps 606 mmHg 86%
    05:00 +15°C° 0 mm 1 mps 606 mmHg 83%
    06:00 +16°C° 0 mm 1 mps 607 mmHg 80%
    07:00 +15°C° 0 mm 0 mps 607 mmHg 77%
    08:00 +20°C° 0 mm 1 mps 608 mmHg 68%
    09:00 +22°C° 0 mm 1 mps 609 mmHg 60%
    10:00 +25°C° 0 mm 1 mps 610 mmHg 51%
    11:00 +25°C° 0 mm 1 mps 610 mmHg 50%
    12:00 +26°C° 0 mm 1 mps 610 mmHg 49%
    13:00 +27°C° 0 mm 2 mps 610 mmHg 47%
    14:00 +26°C° 0.1 mm 2 mps 609 mmHg 51%
    15:00 +25°C° 0.1 mm 3 mps 608 mmHg 54%
    16:00 +24°C° 0.1 mm 3 mps 607 mmHg 58%
    17:00 +21°C° 0 mm 3 mps 607 mmHg 65%
    18:00 +19°C° 0 mm 2 mps 607 mmHg 73%
    19:00 +17°C° 0 mm 2 mps 606 mmHg 81%
    20:00 +18°C° 0 mm 1 mps 607 mmHg 80%
    21:00 +16°C° 0 mm 1 mps 607 mmHg 79%
    22:00 +16°C° 0 mm 1 mps 607 mmHg 78%
    23:00 +15°C° 0 mm 1 mps 607 mmHg 76%

    Day after tomorrow, 26 February, Wednesday

    Time Temperature Precipitation Wind Pressure Humidity
    00:00 +15°C° 0 mm 1 mps 607 mmHg 73%
    01:00 +15°C° 0 mm 1 mps 606 mmHg 71%
    02:00 +15°C° 0 mm 1 mps 606 mmHg 67%
    03:00 +14°C° 0 mm 1 mps 606 mmHg 63%
    04:00 +14°C° 0 mm 1 mps 605 mmHg 59%
    05:00 +14°C° 0 mm 1 mps 606 mmHg 59%
    06:00 +14°C° 0 mm 1 mps 606 mmHg 59%
    07:00 +15°C° 0 mm 1 mps 607 mmHg 59%
    08:00 +18°C° 0 mm 1 mps 608 mmHg 54%
    09:00 +20°C° 0 mm 2 mps 609 mmHg 48%
    10:00 +23°C° 0 mm 2 mps 610 mmHg 42%
    11:00 +24°C° 0 mm 2 mps 610 mmHg 40%
    12:00 +25°C° 0 mm 2 mps 609 mmHg 38%
    13:00 +25°C° 0 mm 3 mps 609 mmHg 36%
    14:00 +25°C° 0 mm 3 mps 609 mmHg 37%
    15:00 +25°C° 0 mm 3 mps 608 mmHg 38%
    16:00 +24°C° 0 mm 3 mps 608 mmHg 39%
    17:00 +21°C° 0 mm 2 mps 607 mmHg 48%
    18:00 +19°C° 0 mm 2 mps 607 mmHg 57%
    19:00 +16°C° 0 mm 1 mps 606 mmHg 66%
    20:00 +16°C° 0 mm 1 mps 606 mmHg 69%
    21:00 +15°C° 0 mm 1 mps 607 mmHg 71%
    22:00 +15°C° 0 mm 1 mps 607 mmHg 73%
    23:00 +14°C° 0 mm 1 mps 607 mmHg 74%

    27 February, Thursday

    Time Temperature Precipitation Wind Pressure Humidity
    00:00 +14°C° 0 mm 1 mps 606 mmHg 74%
    01:00 +14°C° 0 mm 1 mps 606 mmHg 75%
    02:00 +14°C° 0 mm 1 mps 606 mmHg 68%
    03:00 +13°C° 0 mm 1 mps 606 mmHg 62%
    04:00 +13°C° 0 mm 1 mps 606 mmHg 55%
    05:00 +14°C° 0 mm 1 mps 606 mmHg 53%
    06:00 +14°C° 0 mm 1 mps 606 mmHg 51%
    07:00 +14°C° 0 mm 1 mps 607 mmHg 49%
    08:00 +18°C° 0 mm 1 mps 608 mmHg 43%
    09:00 +20°C° 0 mm 1 mps 609 mmHg 37%
    10:00 +23°C° 0 mm 2 mps 610 mmHg 31%
    11:00 +24°C° 0 mm 2 mps 610 mmHg 30%
    12:00 +25°C° 0 mm 2 mps 610 mmHg 30%
    13:00 +26°C° 0 mm 3 mps 610 mmHg 29%
    14:00 +25°C° 0 mm 3 mps 609 mmHg 31%
    15:00 +25°C° 0 mm 3 mps 609 mmHg 33%
    16:00 +24°C° 0 mm 3 mps 608 mmHg 36%
    17:00 +21°C° 0 mm 2 mps 608 mmHg 43%
    18:00 +18°C° 0 mm 2 mps 607 mmHg 51%
    19:00 +16°C° 0 mm 1 mps 607 mmHg 59%
    20:00 +15°C° 0 mm 1 mps 607 mmHg 60%
    21:00 +15°C° 0 mm 1 mps 607 mmHg 61%
    22:00 +14°C° 0 mm 1 mps 608 mmHg 63%
    23:00 +14°C° 0 mm 1 mps 607 mmHg 61%

    28 February, Friday

    Time Temperature Precipitation Wind Pressure Humidity
    00:00 +14°C° 0 mm 1 mps 607 mmHg 60%
    01:00 +14°C° 0 mm 1 mps 607 mmHg 58%
    02:00 +14°C° 0 mm 1 mps 607 mmHg 54%
    03:00 +14°C° 0 mm 1 mps 607 mmHg 49%
    04:00 +14°C° 0 mm 1 mps 607 mmHg 45%
    05:00 +15°C° 0 mm 1 mps 607 mmHg 45%
    06:00 +15°C° 0 mm 1 mps 607 mmHg 46%
    07:00 +15°C° 0 mm 1 mps 608 mmHg 46%
    08:00 +19°C° 0 mm 1 mps 609 mmHg 42%
    09:00 +22°C° 0 mm 1 mps 610 mmHg 37%
    10:00 +25°C° 0 mm 1 mps 612 mmHg 32%
    11:00 +26°C° 0 mm 1 mps 611 mmHg 32%
    12:00 +26°C° 0 mm 2 mps 611 mmHg 32%
    13:00 +27°C° 0 mm 2 mps 611 mmHg 32%
    14:00 +27°C° 0 mm 2 mps 610 mmHg 34%
    15:00 +26°C° 0 mm 2 mps 610 mmHg 36%
    16:00 +25°C° 0 mm 3 mps 609 mmHg 39%
    17:00 +23°C° 0 mm 2 mps 608 mmHg 47%
    18:00 +20°C° 0 mm 2 mps 608 mmHg 55%
    19:00 +18°C° 0 mm 1 mps 607 mmHg 64%
    20:00 +18°C° 0 mm 1 mps 608 mmHg 64%
    21:00 +15°C° 0 mm 0 mps 608 mmHg 65%
    22:00 +15°C° 0 mm 0 mps 608 mmHg 65%
    23:00 +15°C° 0 mm 0 mps 608 mmHg 63%

    29 February, Saturday

    Time Temperature Precipitation Wind Pressure Humidity
    00:00 +15°C° 0 mm 0 mps 608 mmHg 61%
    01:00 +16°C° 0 mm 1 mps 607 mmHg 59%
    02:00 +16°C° 0 mm 1 mps 607 mmHg 58%
    03:00 +16°C° 0 mm 1 mps 607 mmHg 57%
    04:00 +16°C° 0 mm 1 mps 607 mmHg 56%
    05:00 +16°C° 0 mm 1 mps 607 mmHg 57%
    06:00 +18°C° 0 mm 1 mps 608 mmHg 59%
    07:00 +18°C° 0 mm 1 mps 608 mmHg 60%
    08:00 +20°C° 0 mm 1 mps 609 mmHg 54%
    09:00 +23°C° 0 mm 1 mps 611 mmHg 48%
    10:00 +25°C° 0 mm 1 mps 612 mmHg 42%
    11:00 +26°C° 0 mm 1 mps 611 mmHg 42%
    12:00 +26°C° 0 mm 1 mps 611 mmHg 41%
    13:00 +27°C° 0 mm 1 mps 611 mmHg 41%
    14:00 +26°C° 0 mm 1 mps 610 mmHg 44%
    15:00 +24°C° 0 mm 2 mps 609 mmHg 48%
    16:00 +23°C° 0 mm 2 mps 608 mmHg 52%
    17:00 +21°C° 0 mm 2 mps 608 mmHg 54%
    18:00 +20°C° 0 mm 2 mps 608 mmHg 57%
    19:00 +18°C° 0 mm 2 mps 607 mmHg 60%
    20:00 +18°C° 0 mm 2 mps 608 mmHg 59%
    21:00 +17°C° 0 mm 2 mps 608 mmHg 58%
    22:00 +17°C° 0 mm 2 mps 608 mmHg 58%
    23:00 +16°C° 0 mm 2 mps 608 mmHg 57%
    Show more